�������l�o���
Date,Time,MP-1(��Sv/h),MP-2(��Sv/h),MP-3(��Sv/h),MP-4(��Sv/h),MP-5(��Sv/h),MP-6(��Sv/h),MP-7(��Sv/h),MP-8(��Sv/h),����,����(m/s),���J
2016/10/07,00:00,1.145,1.904,1.356,2.087,1.466,0.600,1.066,0.983,�k�k��,5.8,��
2016/10/07,00:10,1.144,1.902,1.357,2.084,1.464,0.600,1.069,0.984,�k�k��,4.9,��
2016/10/07,00:20,1.143,1.903,1.358,2.086,1.464,0.600,1.068,0.985,�k��,6.3,��
2016/10/07,00:30,1.142,1.905,1.357,2.086,1.467,0.600,1.067,0.982,�k��,5.8,��
2016/10/07,00:40,1.145,1.900,1.354,2.085,1.465,0.598,1.067,0.983,�k��,5.8,��
2016/10/07,00:50,1.144,1.901,1.355,2.084,1.461,0.599,1.067,0.983,�k��,7.1,��
2016/10/07,01:00,1.143,1.900,1.356,2.086,1.464,0.600,1.068,0.983,�k��,6.3,��
2016/10/07,01:10,1.144,1.903,1.358,2.085,1.464,0.599,1.066,0.983,�k��,8.3,��
2016/10/07,01:20,1.141,1.902,1.359,2.086,1.462,0.598,1.067,0.984,�k��,7.8,��
2016/10/07,01:30,1.146,1.900,1.355,2.086,1.463,0.597,1.068,0.984,���k��,6.1,��
2016/10/07,01:40,1.143,1.902,1.358,2.087,1.464,0.598,1.066,0.984,���k��,6.0,��
2016/10/07,01:50,1.144,1.904,1.356,2.084,1.465,0.598,1.066,0.985,�k��,4.7,��
2016/10/07,02:00,1.142,1.901,1.355,2.087,1.464,0.599,1.065,0.981,���k��,5.6,��
2016/10/07,02:10,1.141,1.899,1.356,2.087,1.461,0.600,1.068,0.982,���k��,5.3,��
2016/10/07,02:20,1.143,1.901,1.356,2.084,1.463,0.599,1.066,0.984,���k��,4.9,��
2016/10/07,02:30,1.142,1.900,1.356,2.085,1.463,0.598,1.066,0.983,���k��,4.1,��
2016/10/07,02:40,1.144,1.903,1.354,2.084,1.461,0.598,1.063,0.982,���k��,4.5,��
2016/10/07,02:50,1.142,1.902,1.355,2.085,1.464,0.597,1.065,0.984,�k��,4.2,��
2016/10/07,03:00,1.140,1.900,1.356,2.082,1.465,0.598,1.067,0.983,���k��,4.4,��
2016/10/07,03:10,1.142,1.901,1.354,2.084,1.462,0.598,1.066,0.983,���k��,4.1,��
2016/10/07,03:20,1.142,1.900,1.353,2.085,1.465,0.599,1.065,0.982,���k��,3.8,��
2016/10/07,03:30,1.142,1.902,1.355,2.084,1.461,0.598,1.068,0.982,���k��,3.8,��
2016/10/07,03:40,1.141,1.906,1.354,2.087,1.464,0.598,1.063,0.983,��,4.9,��
2016/10/07,03:50,1.140,1.900,1.354,2.084,1.464,0.596,1.065,0.982,���k��,5.5,��
2016/10/07,04:00,1.140,1.901,1.355,2.085,1.461,0.599,1.065,0.982,���k��,4.2,��
2016/10/07,04:10,1.142,1.901,1.355,2.087,1.463,0.598,1.066,0.982,���k��,3.8,��
2016/10/07,04:20,1.141,1.897,1.354,2.084,1.462,0.598,1.066,0.983,���k��,4.4,��
2016/10/07,04:30,1.142,1.901,1.354,2.085,1.461,0.599,1.063,0.982,���k��,4.2,��
2016/10/07,04:40,1.142,1.901,1.355,2.084,1.462,0.598,1.064,0.982,���k��,3.6,��
2016/10/07,04:50,1.140,1.903,1.354,2.086,1.460,0.598,1.065,0.980,���k��,5.8,��
2016/10/07,05:00,1.140,1.899,1.355,2.086,1.464,0.598,1.066,0.982,���k��,6.3,��
2016/10/07,05:10,1.140,1.903,1.355,2.086,1.463,0.598,1.066,0.982,���k��,4.9,��
2016/10/07,05:20,1.139,1.901,1.356,2.087,1.460,0.598,1.067,0.980,���k��,4.4,��
2016/10/07,05:30,1.141,1.901,1.353,2.084,1.462,0.597,1.064,0.983,���k��,4.5,��
2016/10/07,05:40,1.139,1.904,1.353,2.087,1.462,0.598,1.066,0.982,���k��,4.1,��
2016/10/07,05:50,1.142,1.900,1.354,2.085,1.462,0.596,1.066,0.984,��,3.3,��
2016/10/07,06:00,1.143,1.900,1.354,2.084,1.464,0.598,1.066,0.983,��,3.4,��
2016/10/07,06:10,1.140,1.901,1.351,2.085,1.462,0.597,1.066,0.982,��,3.5,��
2016/10/07,06:20,1.140,1.904,1.357,2.086,1.461,0.598,1.065,0.981,��,3.3,��
2016/10/07,06:30,1.141,1.901,1.356,2.084,1.462,0.596,1.065,0.981,��,3.8,��
2016/10/07,06:40,1.141,1.901,1.356,2.086,1.465,0.597,1.064,0.982,��,3.9,��
2016/10/07,06:50,1.143,1.900,1.356,2.087,1.465,0.597,1.066,0.982,��,3.3,��
2016/10/07,07:00,1.143,1.902,1.355,2.087,1.462,0.598,1.068,0.983,��,3.3,��
2016/10/07,07:10,1.140,1.901,1.355,2.084,1.464,0.599,1.068,0.982,��,2.6,��
2016/10/07,07:20,1.140,1.904,1.353,2.086,1.465,0.597,1.068,0.983,��,3.1,��
2016/10/07,07:30,1.143,1.905,1.355,2.087,1.466,0.598,1.067,0.984,��,2.5,��
2016/10/07,07:40,1.143,1.906,1.371,2.087,1.467,0.599,1.066,0.983,���k��,2.3,��
2016/10/07,07:50,1.140,1.900,1.374,2.088,1.465,0.598,1.068,0.983,�k��,2.9,��
2016/10/07,08:00,1.142,1.900,1.365,2.087,1.464,0.598,1.065,0.985,�k��,3.2,��
2016/10/07,08:10,1.142,1.898,1.359,2.091,1.463,0.596,1.066,0.983,�k��,2.6,��
2016/10/07,08:20,1.145,1.902,1.352,2.091,1.467,0.598,1.063,0.988,���k��,5.2,��
2016/10/07,08:30,1.141,1.906,1.357,2.087,1.466,0.599,1.066,0.983,���k��,4.6,��
2016/10/07,08:40,1.141,1.902,1.353,2.090,1.468,0.598,1.065,0.984,�k��,7.4,��
2016/10/07,08:50,1.142,1.904,1.355,2.090,1.467,0.598,1.065,0.986,�k��,5.6,��
2016/10/07,09:00,1.143,1.904,1.350,2.089,1.464,0.595,1.067,0.984,�k��,5.3,��
2016/10/07,09:10,1.144,1.903,1.348,2.090,1.464,0.596,1.066,0.983,�k��,6.7,��
2016/10/07,09:20,1.142,1.909,1.350,2.090,1.466,0.598,1.065,0.983,�k��,6.6,��
2016/10/07,09:30,1.144,1.906,1.353,2.091,1.468,0.598,1.065,0.983,�k�k��,7.7,��
2016/10/07,09:40,1.145,1.906,1.353,2.094,1.468,0.598,1.065,0.981,�k�k��,5.8,��
2016/10/07,09:50,1.144,1.903,1.348,2.094,1.470,0.597,1.067,0.982,�k�k��,5.2,��
2016/10/07,10:00,1.145,1.904,1.351,2.095,1.469,0.597,1.068,0.981,�k�k��,5.3,��
2016/10/07,10:10,1.145,1.906,1.347,2.095,1.471,0.596,1.066,0.982,�k,4.4,��
2016/10/07,10:20,1.145,1.904,1.346,2.096,1.469,0.597,1.066,0.981,�k,4.9,��
2016/10/07,10:30,1.145,1.905,1.345,2.098,1.470,0.596,1.069,0.983,�k,4.4,��
2016/10/07,10:40,1.146,1.908,1.346,2.097,1.473,0.599,1.068,0.982,�k,4.1,��
2016/10/07,10:50,1.144,1.909,1.345,2.098,1.475,0.597,1.067,0.984,�k�k��,4.2,��
2016/10/07,11:00,1.149,1.912,1.347,2.096,1.473,0.597,1.068,0.981,�k�k��,5.3,��
2016/10/07,11:10,1.148,1.915,1.347,2.099,1.473,0.599,1.068,0.983,�k��,3.8,��
2016/10/07,11:20,1.147,1.912,1.347,2.098,1.475,0.598,1.068,0.982,�k�k��,2.6,��
2016/10/07,11:30,1.149,1.909,1.350,2.101,1.474,0.597,1.069,0.981,�k��,5.3,��
2016/10/07,11:40,1.146,1.913,1.347,2.099,1.471,0.599,1.067,0.982,�k��,4.9,��
2016/10/07,11:50,1.150,1.914,1.349,2.098,1.477,0.598,1.069,0.984,�k��,5.2,��
2016/10/07,12:00,1.147,1.915,1.348,2.102,1.477,0.599,1.066,0.982,�k��,5.5,��
2016/10/07,12:10,1.149,1.914,1.353,2.099,1.477,0.599,1.069,0.982,�k��,5.6,��
2016/10/07,12:20,1.148,1.917,1.351,2.102,1.479,0.599,1.068,0.982,�k��,5.0,��
2016/10/07,12:30,1.150,1.916,1.348,2.100,1.478,0.600,1.067,0.983,���k��,5.6,��
2016/10/07,12:40,1.150,1.917,1.349,2.101,1.480,0.600,1.068,0.984,���k��,6.4,��
2016/10/07,12:50,1.147,1.913,1.345,2.102,1.479,0.599,1.070,0.984,���k��,6.1,��
2016/10/07,13:00,1.148,1.916,1.349,2.104,1.481,0.598,1.068,0.984,���k��,6.1,��
2016/10/07,13:10,1.150,1.916,1.349,2.104,1.479,0.600,1.072,0.982,���k��,4.4,��
2016/10/07,13:20,1.151,1.915,1.351,2.101,1.480,0.600,1.069,0.984,���k��,3.5,��
2016/10/07,13:30,1.149,1.918,1.353,2.099,1.481,0.599,1.069,0.983,���k��,4.4,��
2016/10/07,13:40,1.148,1.917,1.354,2.103,1.483,0.600,1.070,0.984,��,4.1,��
2016/10/07,13:50,1.150,1.919,1.355,2.102,1.483,0.601,1.069,0.985,���k��,3.6,��
2016/10/07,14:00,1.149,1.915,1.361,2.099,1.482,0.600,1.069,0.984,��,4.1,��
2016/10/07,14:10,1.149,1.907,1.362,2.101,1.484,0.601,1.069,0.983,��,3.4,��
2016/10/07,14:20,1.149,1.907,1.363,2.097,1.483,0.602,1.069,0.982,��,2.7,��
2016/10/07,14:30,1.146,1.918,1.365,2.102,1.482,0.600,1.068,0.983,���쓌,2.5,��
2016/10/07,14:40,1.149,1.919,1.366,2.102,1.483,0.602,1.069,0.982,��,2.9,��
2016/10/07,14:50,1.150,1.919,1.365,2.103,1.484,0.602,1.070,0.984,���쓌,2.9,��
2016/10/07,15:00,1.149,1.915,1.365,2.100,1.484,0.601,1.071,0.984,���쓌,2.9,��
2016/10/07,15:10,1.150,1.917,1.363,2.103,1.483,0.600,1.070,0.984,���쓌,2.9,��
2016/10/07,15:20,1.148,1.917,1.366,2.104,1.481,0.601,1.069,0.983,���쓌,2.6,��
2016/10/07,15:30,1.148,1.923,1.364,2.105,1.483,0.601,1.071,0.983,���쓌,3.0,��
2016/10/07,15:40,1.153,1.917,1.363,2.103,1.482,0.602,1.070,0.982,�쓌,2.5,��
2016/10/07,15:50,1.151,1.918,1.364,2.103,1.482,0.602,1.069,0.983,���쓌,2.1,��
2016/10/07,16:00,1.153,1.920,1.369,2.105,1.484,0.602,1.069,0.983,�쓌,2.0,��
2016/10/07,16:10,1.154,1.919,1.363,2.105,1.486,0.602,1.068,0.982,�쓌,2.8,��
2016/10/07,16:20,1.154,1.921,1.366,2.108,1.483,0.602,1.070,0.983,�쓌,2.4,��
2016/10/07,16:30,1.152,1.920,1.365,2.106,1.483,0.603,1.070,0.984,���쓌,3.5,��
2016/10/07,16:40,1.153,1.925,1.365,2.106,1.485,0.604,1.070,0.984,�쓌,3.8,��
2016/10/07,16:50,1.150,1.925,1.365,2.104,1.484,0.603,1.071,0.985,��,2.4,��
2016/10/07,17:00,1.150,1.927,1.365,2.106,1.484,0.604,1.070,0.985,��,2.4,��
2016/10/07,17:10,1.150,1.928,1.365,2.102,1.481,0.603,1.070,0.987,��쐼,1.9,��
2016/10/07,17:20,1.151,1.927,1.365,2.102,1.483,0.604,1.071,0.986,��쓌,2.2,��
2016/10/07,17:30,1.151,1.927,1.367,2.102,1.485,0.604,1.069,0.986,��쓌,3.2,��
2016/10/07,17:40,1.150,1.927,1.368,2.102,1.484,0.603,1.071,0.985,��,2.6,��
2016/10/07,17:50,1.153,1.925,1.367,2.102,1.486,0.603,1.069,0.986,��,2.7,��
2016/10/07,18:00,1.153,1.924,1.366,2.100,1.487,0.602,1.070,0.985,��,3.4,��
2016/10/07,18:10,1.152,1.924,1.367,2.103,1.485,0.603,1.070,0.986,��,3.3,��
2016/10/07,18:20,1.153,1.923,1.365,2.103,1.485,0.601,1.069,0.987,��쐼,4.1,��
2016/10/07,18:30,1.150,1.922,1.365,2.101,1.484,0.603,1.070,0.985,��,4.9,��
2016/10/07,18:40,1.152,1.921,1.366,2.102,1.487,0.604,1.070,0.987,��,4.9,��
2016/10/07,18:50,1.151,1.924,1.365,2.103,1.485,0.603,1.071,0.985,��,4.7,��
2016/10/07,19:00,1.151,1.922,1.365,2.103,1.485,0.603,1.068,0.985,��,4.9,��
2016/10/07,19:10,1.152,1.923,1.366,2.104,1.485,0.602,1.072,0.986,��,4.5,��
2016/10/07,19:20,1.152,1.921,1.365,2.101,1.487,0.603,1.070,0.986,��,4.7,��
2016/10/07,19:30,1.152,1.920,1.365,2.101,1.482,0.604,1.071,0.986,��,4.2,��
2016/10/07,19:40,1.150,1.921,1.366,2.099,1.485,0.603,1.070,0.987,��,4.4,��
2016/10/07,19:50,1.150,1.923,1.364,2.101,1.486,0.601,1.070,0.986,��쐼,4.7,��
2016/10/07,20:00,1.150,1.921,1.364,2.098,1.480,0.603,1.068,0.987,��쐼,5.3,��
2016/10/07,20:10,1.151,1.920,1.366,2.099,1.486,0.603,1.070,0.986,��,5.6,��
2016/10/07,20:20,1.151,1.924,1.364,2.101,1.485,0.604,1.071,0.986,��쐼,5.5,��
2016/10/07,20:30,1.152,1.923,1.364,2.102,1.484,0.602,1.072,0.984,��쐼,5.8,��
2016/10/07,20:40,1.152,1.920,1.366,2.097,1.485,0.602,1.069,0.987,��쐼,6.4,��
2016/10/07,20:50,1.152,1.922,1.369,2.100,1.485,0.601,1.071,0.985,��쐼,5.2,��
2016/10/07,21:00,1.152,1.921,1.366,2.102,1.482,0.602,1.070,0.984,��쐼,4.1,��
2016/10/07,21:10,1.153,1.922,1.367,2.101,1.484,0.603,1.069,0.985,��쐼,4.5,��
2016/10/07,21:20,1.152,1.921,1.363,2.100,1.485,0.603,1.070,0.986,��쐼,5.5,��
2016/10/07,21:30,1.151,1.921,1.363,2.102,1.485,0.603,1.068,0.986,��쐼,4.9,��
2016/10/07,21:40,1.150,1.919,1.362,2.103,1.484,0.603,1.069,0.985,��쐼,4.1,��
2016/10/07,21:50,1.151,1.922,1.363,2.100,1.484,0.603,1.071,0.986,��쐼,4.1,��
2016/10/07,22:00,1.151,1.923,1.363,2.102,1.485,0.603,1.070,0.987,��쐼,2.0,��
2016/10/07,22:10,1.155,1.920,1.365,2.104,1.485,0.602,1.071,0.985,��,4.4,��
2016/10/07,22:20,1.152,1.923,1.365,2.105,1.483,0.602,1.070,0.988,��,6.3,��
2016/10/07,22:30,1.152,1.921,1.366,2.100,1.481,0.602,1.070,0.986,��,7.4,��
2016/10/07,22:40,1.152,1.918,1.365,2.102,1.485,0.602,1.071,0.988,��쐼,7.2,��
2016/10/07,22:50,1.151,1.922,1.366,2.102,1.486,0.601,1.067,0.986,��,6.9,��
2016/10/07,23:00,1.154,1.922,1.365,2.103,1.486,0.602,1.069,0.987,��,7.7,��
2016/10/07,23:10,1.151,1.921,1.365,2.103,1.484,0.602,1.069,0.986,��,7.8,��
2016/10/07,23:20,1.153,1.918,1.363,2.102,1.486,0.605,1.070,0.987,��,8.8,��
2016/10/07,23:30,1.152,1.921,1.362,2.101,1.486,0.603,1.073,0.986,��,8.6,��
2016/10/07,23:40,1.152,1.924,1.363,2.099,1.483,0.604,1.071,0.986,��,8.8,��
2016/10/07,23:50,1.152,1.920,1.363,2.099,1.485,0.603,1.070,0.988,��,8.9,��
